Date,Time,Ammonium-nitrogen,Total oxidised nitrogen,Nitrate-nitrogen,Nitrite-nitrogen,Suspended solids,Soluble reactive phosphorus,Dissolved organic carbon,Total phosphorus
Date,Time,Ammonium-nitrogen,Total oxidised nitrogen,Nitrate-nitrogen,Nitrite-nitrogen,Suspended solids,Soluble reactive phosphorus,Dissolved organic carbon,Total phosphorus
Units: Year month day,Units: Hour minute second,Units: milligrams per litre,Units: milligrams per litre,Units: milligrams per litre,Units: milligrams per litre,Units: milligrams per litre,Units: milligrams per litre,Units: milligrams per litre,Units: milligrams per litre
2012-01-24,12:30,0.447,2.26,2.23,0.0259,35.1,0.112,6.56,0.309
2012-01-24,13:30,0.356,2.41,2.39,0.0245,19.9,0.0836,6.41,0.215
2012-01-24,14:30,0.309,2.43,2.41,0.025,10.7,0.0788,5.85,0.163
2012-01-24,15:30,0.257,2.49,2.47,0.0244,11.2,0.0747,5.48,0.154
2012-01-24,16:30,0.187,2.58,2.56,0.0231,116,0.0827,5.1,0.366
2012-01-24,17:30,0.176,2.56,2.54,0.0214,137,0.0774,4.84,0.393
2012-01-24,18:30,0.131,2.68,2.66,0.0213,146,0.0706,4.58,0.436
2012-01-24,19:30,0.13,2.57,2.55,0.0199,153,0.0663,4.4,0.411
2012-01-24,20:30,0.112,2.55,2.53,0.0199,140,0.0711,4.27,0.386
2012-01-24,21:30,0.108,2.57,2.55,0.019,132,0.0661,4.11,0.358
2012-01-24,22:30,0.109,2.51,2.49,0.0184,104,0.0632,3.88,0.306
2012-01-24,23:30,0.126,2.56,2.54,0.0215,43.9,0.0505,4.04,0.162
2012-01-25,00:30,0.118,2.61,2.59,0.0186,4.8,0.0434,3.58,0.0745
2012-01-25,01:30,0.124,2.54,2.52,0.0215,12.9,0.0533,3.95,0.106
2012-01-25,02:30,0.115,2.71,2.69,0.02,7.65,0.0515,3.95,0.0987
2012-01-25,03:30,0.118,2.69,2.67,0.0206,9.75,0.0561,3.81,0.0728
2012-01-25,04:30,0.109,2.59,2.57,0.0188,6.05,0.0446,3.73,0.078
2012-01-25,05:30,0.133,2.66,2.64,0.019,5.8,0.0435,3.74,0.0734
2012-01-25,06:30,0.115,2.59,2.57,0.0188,5.75,0.0443,3.79,0.0751
2012-01-25,07:30,0.119,2.63,2.61,0.0194,4.85,0.0429,3.62,0.0748
2012-01-25,08:30,0.114,2.62,2.6,0.0191,5.6,0.0523,3.64,0.088
2012-01-25,09:30,0.112,2.58,2.56,0.0185,< 3,0.0419,3.56,0.0708
2012-01-25,10:30,0.111,2.61,2.59,0.0188,4.6,0.0441,3.5,0.0764
2012-01-25,11:30,0.111,2.63,2.61,0.019,4.9,0.043,3.5,0.0722
2012-02-06,13:15,0.114,3.04,3.01,0.0272,< 3,0.049,2.03,0.061
2012-02-06,14:15,0.113,3.01,2.98,0.027,< 3,0.0488,1.8,0.0637
2012-02-06,15:15,0.115,3.05,3.02,0.027,< 3,0.0526,1.93,0.0615
2012-02-06,16:15,0.12,2.99,2.96,0.0272,< 3,0.0489,1.79,0.0601
2012-02-06,17:15,0.119,3.07,3.04,0.0272,< 3,0.0509,1.88,0.0649
2012-02-06,18:15,0.117,2.99,2.96,0.0272,< 3,0.0517,1.79,0.0645
2012-02-06,19:15,0.115,3.02,2.99,0.0276,< 3,0.0493,1.74,0.0648
2012-02-06,20:15,0.117,3.05,3.02,0.0273,< 3,0.0492,1.78,0.0642
2012-02-06,21:15,0.117,3,2.97,0.0273,< 3,0.0514,1.77,0.062
2012-02-06,22:15,0.116,3.03,3,0.0266,< 3,0.0488,1.73,0.0606
2012-02-06,23:15,0.121,3.06,3.03,0.0263,< 3,0.0476,1.69,0.0627
2012-02-07,00:15,0.124,3.05,3.02,0.0264,< 3,0.0505,1.7,0.0638
2012-02-07,01:15,0.121,3.07,3.04,0.0263,< 3,0.0487,1.68,0.0598
2012-02-07,02:15,0.122,3.06,3.03,0.0262,< 3,0.0486,1.74,0.0592
2012-02-07,03:15,0.123,3.08,3.05,0.0261,< 3,0.0468,1.68,0.0604
2012-02-07,04:15,0.125,3.05,3.02,0.0264,< 3,0.0479,1.7,0.0591
2012-02-07,05:15,0.123,3.04,3.01,0.026,< 3,0.0468,1.94,0.0596
2012-02-07,06:15,0.125,3.08,3.05,0.0254,< 3,0.0474,1.66,0.0597
2012-02-07,07:15,0.127,3.07,3.04,0.0256,< 3,0.0495,1.71,0.0596
2012-02-07,08:15,0.149,3.02,2.99,0.0255,6.47,0.0551,1.63,0.0768
2012-02-07,09:15,0.128,3.06,3.03,0.0256,4.45,0.0497,1.66,0.0715
2012-02-07,10:15,0.114,3.1,3.07,0.0254,< 3,0.0491,1.7,0.0615
2012-02-07,11:15,0.118,3.09,3.06,0.0256,< 3,0.0483,1.67,0.0601
2012-02-07,12:15,0.122,3.05,3.02,0.0273,8.92,0.0476,5.05,0.0629
2012-06-21,21:15,13.5,44.1,43.6,0.535,1300,0.0341,24.8,2.83
2012-06-21,22:15,14.7,37,36.7,0.312,587,0.149,13.7,1.53
2012-06-21,23:15,9.98,23.1,22.8,0.267,234,0.213,16.1,0.95
2012-06-22,00:15,8.58,22.4,22.1,0.294,268,0.167,13.3,0.871
2012-06-22,01:15,6.59,17.7,17.5,0.203,136,0.207,15,0.641
2012-06-22,02:15,5.04,14.8,14.6,0.183,68.7,0.2,15.6,0.482
2012-06-22,03:15,3.57,12.1,11.9,0.166,54.6,0.177,15.3,0.432
2012-06-22,04:15,2.59,10.4,10.2,0.151,48.5,0.154,14.2,0.469
2012-06-22,05:15,1.96,9.29,9.16,0.135,36,0.138,13.5,0.328
2012-06-22,06:15,1.53,8.11,7.99,0.122,45.8,0.141,13.3,0.356
2012-06-22,07:15,4.4,15.2,15.1,0.13,112,0.156,13.7,0.509
2012-06-22,08:15,4.36,13.3,13.2,0.104,400,0.173,13.8,1.02
2012-06-22,09:15,3.61,9.74,9.65,0.0862,285,0.21,13.9,0.925
2012-06-22,10:15,2.92,7.68,7.6,0.0847,140,0.218,14.2,0.648
2012-06-22,11:15,2.56,7.54,7.46,0.0782,122,0.194,14.3,0.57
2012-06-22,12:15,2.31,6.21,6.14,0.0738,188,0.195,13.4,0.682
2012-06-22,13:15,1.92,5.42,5.36,0.0629,114,0.198,13.2,0.552
2012-06-22,14:15,1.56,4.66,4.6,0.0575,72,0.198,12.9,0.472
2012-06-22,15:15,1.28,4.5,4.44,0.0557,53,0.189,11.6,0.428
2012-06-22,16:15,1.27,4.72,4.67,0.0547,53.8,0.182,11.8,0.398
2012-06-22,17:15,1.07,4.46,4.41,0.0507,53.1,0.166,12.4,0.374
2012-06-22,18:15,0.84,4.11,4.06,0.0482,42.9,0.161,11.8,0.347
2012-06-22,19:15,0.701,4.03,3.98,0.0464,29.2,0.149,11,0.293
2012-06-22,20:15,0.621,4.02,3.97,0.0462,33,0.133,10.5,0.294
2012-08-17,10:15,0.747,2.48,2.4,0.0794,137,0.224,18.3,0.687
2012-08-17,11:15,0.741,2.14,2.07,0.068,75,0.228,18,0.594
2012-08-17,12:15,0.905,1.89,1.82,0.066,52,0.278,18.5,0.601
2012-08-17,13:15,0.877,1.84,1.77,0.066,47.6,0.269,16.7,0.564
2012-08-17,14:15,0.921,2.06,1.99,0.0717,43,0.255,17.3,0.55
2012-08-17,15:15,0.582,2.01,1.94,0.0677,28.3,0.192,17.3,0.409
2012-08-17,16:15,0.371,2.13,2.06,0.0669,26,0.154,15.1,0.332
2012-08-17,17:15,0.325,2.11,2.04,0.0685,22.6,0.151,13.6,0.325
2012-08-17,18:15,0.299,1.95,1.89,0.0623,19.2,0.141,14,0.301
2012-08-17,19:15,0.232,2.03,1.97,0.0576,16.2,0.125,12.9,0.261
2012-08-17,20:15,0.187,1.9,1.85,0.0532,14.2,0.114,12.8,0.255
2012-08-17,21:15,0.168,1.9,1.85,0.0491,13.8,0.115,11.7,0.24
2012-08-17,22:15,0.148,1.96,1.92,0.0419,13.2,0.109,11.1,0.229
2012-08-17,23:15,0.137,1.81,1.77,0.0393,15.5,0.102,10.6,0.224
2012-08-18,00:15,0.314,1.76,1.71,0.0526,31,0.174,13.3,0.396
2012-08-18,01:15,0.225,1.31,1.26,0.0503,41.4,0.151,14.6,0.409
2012-08-18,02:15,0.168,1.27,1.24,0.0336,30.5,0.131,15.7,0.351
2012-08-18,03:15,0.168,1.26,1.23,0.0295,26.1,0.135,17,0.334
2012-08-18,04:15,0.164,1.31,1.28,0.0269,22.9,0.125,17.4,0.326
2012-08-18,05:15,0.163,1.17,1.14,0.0287,45.4,0.139,17.8,0.389
2012-08-18,06:15,0.155,1,0.97,0.03,79.9,0.141,17.8,0.489
2012-08-18,07:15,0.146,0.79,0.763,0.0266,220,0.156,16.2,0.738
2013-10-04,09:27,0.552,1.09,0.909,0.181,110,0.202,11.2,1.4
2013-10-04,10:27,0.358,1.64,1.57,0.0697,863,0.164,12.6,2.34
2013-10-04,11:27,0.362,2.84,2.77,0.0741,380,0.253,12.6,1.16
2013-10-04,12:27,0.197,3.43,3.32,0.106,184,0.247,13.4,0.745
2013-10-04,13:27,0.186,3.73,3.64,0.0948,97.7,0.213,13.7,0.552
2013-10-04,14:27,0.153,3.92,3.82,0.0963,71.3,0.193,12.4,0.472
2013-10-04,16:27,0.099,3.85,3.77,0.0811,41.3,0.156,10.7,0.362
2013-10-04,18:27,0.072,3.9,3.83,0.0656,29.8,0.138,9.9,0.297
2013-10-04,21:27,0.069,3.84,3.79,0.0494,20.5,0.122,8.63,0.238
2013-10-05,02:27,0.042,3.59,3.54,0.0546,16.7,0.0905,7.36,0.19
2013-10-16,16:12,0.291,1.76,1.72,0.0392,54.3,0.117,32.9,1.65
2013-10-16,17:12,0.137,< .2,0.133,0.0671,262,0.102,14.5,1.31
2013-10-16,18:12,0.138,2.14,2.09,0.0524,82.5,0.136,12.8,0.571
2013-10-16,22:12,0.149,2.75,2.68,0.0691,42.7,0.12,12.3,0.404
2013-10-16,01:12,0.116,2.97,2.89,0.0775,16.5,0.0975,11,0.314
2013-10-16,04:12,0.037,2.75,2.7,0.0452,14.5,0.0605,7.85,0.179
2013-10-17,07:12,< .03,2.66,2.63,0.0273,8,0.0474,6.58,0.146
2013-10-19,17:42,0.464,1.32,1.14,0.177,113,0.231,8.95,0.797
2013-10-19,18:42,0.287,1.49,1.44,0.0549,79.8,0.139,10.8,0.51
2013-10-19,19:42,0.129,1.83,1.8,0.0331,30.4,0.106,10.2,0.296
2013-10-19,20:42,0.086,2.09,2.06,0.0298,20.4,0.0937,9.68,0.23
2013-10-19,21:42,0.077,2.12,2.09,0.0264,15.1,0.0899,8.91,0.202
2013-10-19,22:42,0.07,2.23,2.21,0.0239,13.4,0.0844,8.08,0.193
2013-10-20,02:42,0.068,2.34,2.32,0.019,10.4,0.0732,6.28,0.152
2013-10-20,06:42,0.127,2.16,2.14,0.025,10,0.0811,5.92,0.147
2013-10-20,10:42,0.243,1.96,1.92,0.0423,14.2,0.0943,7.24,0.202
2013-10-20,14:42,0.203,1.68,1.65,0.0257,152,0.165,12.5,0.644
2013-10-25,05:12,0.205,1.29,1.27,0.0239,239,0.213,9.03,0.713
2013-10-25,06:12,0.43,2.42,2.36,0.0571,72,0.0858,5.8,0.299
2013-10-25,07:12,0.529,0.31,0.073,0.237,96.6,0.0747,7.97,0.505
2013-10-25,08:12,0.389,1.08,1.03,0.0454,202,0.209,9.49,0.768
2013-10-25,09:12,0.314,0.77,0.746,0.0243,585,0.188,8.81,1.35
2013-10-25,11:12,0.167,1.57,1.55,0.0204,183,0.212,9.44,0.588
2013-10-25,13:12,0.106,2.1,2.08,0.0201,52.3,0.167,8.41,0.341
2013-10-25,15:12,0.08,2.61,2.59,0.0182,29.8,0.115,7.13,0.227
2013-10-25,16:12,0.096,1.68,1.66,0.016,194,0.151,8.39,0.559
2013-10-25,17:12,0.22,1.5,1.48,0.0204,44.5,0.207,9.34,0.711
2013-10-25,18:12,0.069,1.64,1.63,0.0116,102,0.181,8.52,0.445
2013-10-25,20:12,0.055,2.14,2.13,0.0125,39.4,0.158,8.46,0.311
2013-10-26,00:12,0.039,2.93,2.92,0.0134,24,0.128,7.64,0.228
2013-12-14,14:30,0.229,1.9,1.86,0.0366,176,0.0806,7.68,0.613
2013-12-14,15:30,0.326,1.2,1.18,0.0245,916,0.105,7.66,2.89
2013-12-14,16:30,0.184,1.38,1.36,0.0222,756,0.132,7.04,1.68
2013-12-14,17:30,0.142,1.51,1.49,0.0202,607,0.191,6.15,1.3
2013-12-14,18:30,0.117,1.55,1.53,0.0154,85.7,0.228,6.2,0.874
2013-12-14,19:30,0.189,1.85,1.83,0.0158,232,0.268,6.19,0.68
2013-12-14,22:30,0.239,3.46,3.44,0.0222,57.6,0.355,6.39,0.552
2013-12-15,01:36,0.219,4.3,4.27,0.0257,29.1,0.302,6.33,0.441
2013-12-15,04:30,0.18,4.67,4.64,0.0253,28.9,0.216,5.39,0.33
2013-12-15,07:30,0.168,4.64,4.62,0.0231,19.4,0.157,4.78,0.235
2013-12-15,10:30,0.161,4.28,4.26,0.0233,20.6,0.118,4.46,0.177
2013-12-15,13:30,0.152,3.98,3.96,0.0231,15.2,0.0882,4.22,0.149
2014-01-10,10:00,0.084,2.58,2.57,0.013,19.6,0.0435,2.32,0.0766
2014-01-10,11:00,0.075,2.54,2.53,0.0133,7.08,0.0429,2.31,0.0686
2014-01-10,12:00,0.074,2.58,2.57,0.0136,8.43,0.0459,2.26,0.0695
2014-01-10,13:00,0.238,2.57,2.55,0.0199,3.88,0.0794,2.36,0.0984
2014-01-10,14:00,0.082,2.53,2.52,0.0131,5.88,0.0414,2.26,0.0611
2014-01-10,15:00,0.087,2.6,2.59,0.0138,6.03,0.0455,2.38,0.0661
2014-01-10,16:00,0.097,2.51,2.5,0.0106,6.23,0.036,2.23,0.0532
2014-01-10,17:00,0.102,2.51,2.5,0.0129,4.98,0.0414,2.3,0.062
2014-01-10,18:00,0.113,2.58,2.57,0.0148,6.32,0.0412,2.39,0.0732
2014-01-10,19:00,0.18,2.42,2.41,0.014,6.97,0.051,2.71,0.0754
2014-01-10,20:00,0.238,2.28,2.26,0.0154,12.2,0.0543,3.06,0.099
2014-01-10,21:00,0.306,2.06,2.04,0.016,22.1,0.0672,3.66,0.132
2014-01-28,02:00,0.162,1.36,1.35,0.012,114,0.0442,4.4,0.277
2014-01-28,03:00,0.201,0.94,0.93,0.0096,106,0.0734,4.24,0.32
2014-01-28,04:00,0.233,0.95,0.942,0.0084,61,0.0815,4.35,0.246
2014-01-28,05:00,0.231,1.04,1.03,0.0088,34.5,0.0751,4.14,0.164
2014-01-28,06:00,0.178,1.33,1.32,0.0095,18.6,0.068,4.02,0.124
2014-01-28,07:00,0.138,1.44,1.43,0.0094,15.5,0.0607,3.8,0.107
2014-01-28,08:00,0.129,1.63,1.62,0.0098,13.3,0.0607,3.62,0.0999
2014-01-28,09:00,0.107,1.74,1.73,0.0099,10,0.056,3.61,0.0915
2014-01-28,10:00,0.129,1.81,1.8,0.0112,9.32,0.0613,3.43,0.0992
2014-01-28,11:00,0.109,1.89,1.88,0.0116,8.6,0.0564,3.37,0.0934
2014-01-28,12:00,0.096,1.95,1.94,0.0108,10.3,0.0542,3.31,0.0871
2014-01-28,13:00,0.102,1.91,1.9,0.0105,9.52,0.0504,3.33,0.088
2014-02-05,19:25,0.46,1.32,1.3,0.0169,117,0.0856,5.28,0.354
2014-02-05,20:25,0.493,1.16,1.15,0.0137,71,0.115,5.27,0.321
2014-02-05,21:25,0.267,1.41,1.39,0.0164,41.2,0.113,4.85,0.243
2014-02-05,22:25,0.353,1.55,1.54,0.015,21.5,0.0874,4.23,0.171
2014-02-05,23:25,0.285,1.69,1.68,0.0142,16.7,0.0701,3.81,0.129
2014-02-06,00:25,0.236,1.87,1.86,0.0137,11.2,0.0598,3.66,0.106
2014-02-06,03:25,0.166,2,1.99,0.0127,7.92,0.0558,3.13,0.0869
2014-02-06,06:25,0.18,1.96,1.95,0.0135,11.5,0.0537,2.95,0.0871
2014-02-06,09:25,0.16,1.94,1.93,0.0139,8.22,0.0504,3.08,0.0856
2014-02-06,12:25,0.22,1.96,1.95,0.0149,6.82,0.0648,3.14,0.0995
2014-02-06,15:25,0.146,1.93,1.92,0.013,8.33,0.0548,3.01,0.0795
2014-02-06,18:25,0.129,1.94,1.93,0.0122,6.9,0.0481,2.86,0.0706
2014-02-08,00:40,0.17,1.24,1.23,0.0137,249,0.076,4.03,0.595
2014-02-08,01:40,0.286,0.58,0.57,0.0096,505,0.0707,4.7,1.22
2014-02-08,02:40,0.292,0.58,0.572,0.0085,296,0.143,4.85,0.743
2014-02-08,03:40,0.227,0.64,0.632,0.0081,176,0.073,4.68,0.523
2014-02-08,04:40,0.223,0.81,0.801,0.0095,107,0.086,4.68,0.387
2014-02-08,06:40,0.234,1.35,1.34,0.0099,47.7,0.0814,4.13,0.234
2014-02-08,14:40,0.155,1.87,1.86,0.0109,26.3,0.061,3.21,0.122
2014-02-08,15:40,0.254,1.1,1.09,0.0107,152,0.0863,4.4,0.382
2014-02-08,17:40,0.163,0.68,0.673,0.007,108,0.07,4.71,0.343
2014-02-08,19:40,0.206,0.75,0.743,0.0073,72.9,0.0742,4.45,0.289
2014-02-08,21:40,0.206,0.83,0.82,0.0105,74,0.0912,4.55,0.308
2014-02-08,23:40,0.34,1.17,1.16,0.0123,38.5,0.118,4.38,0.241
